Weather in Almunecar

Spain     36°44′13″N   3°41′20″W
temp.,
°C
wind,
m/s
gust,
m/s
humid.,
%
clouds,
%
prec.,
mm/h
press.,
hPa
HPBL,
m
23 october, sat
sat2323:00+17e688311 0.7 1018467
02:00+17e468296 4.5 1019448
05:00+18sw217095 1.4 1018286
08:00+17wsw11745 1.4 1019276
11:00+18s21707 0.0 1021324
14:00+17s21728 0.1 1021269
17:00+18ese127011 0.1 1020295
20:00+18se347621 0.1 1021574
24 october, sun
sun2423:00+18ese237635 0.1 1023651
02:00+18ese337530 0.2 1022652
05:00+18ese227616 0.0 1022421
08:00+17ene12756 0.0 1022368
11:00+18ese22722 0.0 1024420
14:00+18se337712 0.0 1023488
17:00+18se3377100 0.0 1021406
20:00+18ese2278100 0.0 1022273
25 october, mon
mon2523:00+18ne117588 0.0 1023243
02:00+18ne11775 0.0 1022240
05:00+17ese127840 0.0 1021317
08:00+17ne238121 0.0 1021400
11:00+18ese227695 0.0 1022393
14:00+18se4376100 0.0 1021518
17:00+18se3376100 0.0 1019412
20:00+18e2275100 0.0 1020445
26 october, tue
tue2623:00+18sse1273100 0.0 1021514
02:00+18ese1272100 0.0 1020638
05:00+18sse1171100 0.0 1019379
08:00+17e1276100 0.0 1020534
11:00+17sw0174100 0.0 1021510
14:00+17sse3277100 0.0 1020345
17:00+18ese2272100 0.0 1019501
20:00+18nw0174100 0.0 102048
27 october, wed
wed2723:00+18nnw2174100 0.0 1021102
02:00+18wnw217676 0.0 1021267
05:00+17nne007518 0.0 1020362
08:00+17nnw21713 0.0 1020109
11:00+18s21710 0.0 1021292
14:00+18ssw337726 0.0 1020335
17:00+17ssw2276100 0.0 1019232
20:00+17nnw22768 0.0 1020135